Weather History for Middletown, PA

Change the Weather History Date:

Thursday, January 16, 2014

  Actual Average Record
Temperature  
Mean Temperature 29 °F 30 °F  
Max Temperature 36 °F 37 °F 62 °F (1990)
Min Temperature 22 °F 23 °F -4 °F (1893)
Degree Days  
Heating Degree Days 36 35  
Month to date heating degree days 620 557  
Since 1 July heating degree days 2621 2558  
Cooling Degree Days 0 0  
Month to date cooling degree days 0 0  
Year to date cooling degree days 0 0  
Moisture  
Dew Point 16 °F    
Average Humidity 56    
Maximum Humidity 74    
Minimum Humidity 38    
Precipitation  
Precipitation 0.00 in 0.09 in 2.12 in (1924)
Month to date precipitation 2.05 1.50  
Year to date precipitation 2.05 1.50  
Snow  
Snow 0.00 in - - ()
Month to date snowfall 6.5  
Since 1 July snowfall 15.7  
Snow Depth 0.00 in    
Sea Level Pressure  
Sea Level Pressure 29.95 in    
Wind  
Wind Speed 8 mph (WNW)    
Max Wind Speed 17 mph    
Max Gust Speed 23 mph    
Visibility 10 miles    
Events      
T = Trace of Precipitation, MM = Missing Value Source: NWS Daily Summary

Daily Weather History Graph

Daily Weather History Graph

Search for Another Location

Airport:

Trip Planner

Search our weather history database for the weather conditions in past years. The results will help you decide how hot, cold, wet, or windy it might be!

Date:

Astronomy

Jan. 16, 2014 Rise Set
Actual Time 7:27 AM EST 5:06 PM EST
Civil Twilight 6:57 AM EST 5:36 PM EST
Nautical Twilight 6:23 AM EST 6:10 PM EST
Astronomical Twilight 5:51 AM EST 6:42 PM EST
Moon 5:56 PM EST 7:19 AM EST
Length of Visible Light 10h 39m
Length of Day
9h 39m
Full, 100% of the Moon is Illuminated
Jan 16
Full
Jan 24
Last Quarter
Jan 30
New
Feb 6
First Quarter
Feb 14
Full

Hourly Weather History & Observations

Time (EST) Temp. Windchill Dew Point Humidity Pressure Visibility Wind Dir Wind Speed Gust Speed Precip Events Conditions
12:56 AM 34.0 °F 25.5 °F 19.9 °F 56% 29.96 in 10.0 mi NNW 11.5 mph - N/A   Overcast
1:56 AM 34.0 °F 25.0 °F 18.0 °F 52% 29.97 in 10.0 mi NNW 12.7 mph - N/A   Overcast
2:56 AM 33.1 °F 24.4 °F 19.0 °F 56% 29.97 in 10.0 mi NW 11.5 mph - N/A   Overcast
3:56 AM 32.0 °F - 19.9 °F 61% 29.95 in 10.0 mi Calm Calm - N/A   Overcast
4:56 AM 32.0 °F 22.5 °F 19.0 °F 59% 29.97 in 10.0 mi NW 12.7 mph - N/A   Overcast
5:56 AM 30.9 °F 21.7 °F 16.0 °F 54% 29.96 in 10.0 mi NNW 11.5 mph - N/A   Mostly Cloudy
6:56 AM 30.0 °F 20.5 °F 14.0 °F 51% 29.97 in 10.0 mi NW 11.5 mph - N/A   Overcast
7:56 AM 30.0 °F 19.5 °F 12.9 °F 49% 29.99 in 10.0 mi NW 13.8 mph 23.0 mph N/A   Mostly Cloudy
8:56 AM 28.9 °F 18.6 °F 14.0 °F 54% 30.02 in 10.0 mi NW 12.7 mph - N/A   Mostly Cloudy
9:56 AM 30.9 °F 21.2 °F 15.1 °F 52% 30.02 in 10.0 mi WNW 12.7 mph - N/A   Partly Cloudy
10:56 AM 32.0 °F 23.0 °F 15.1 °F 50% 30.00 in 10.0 mi WNW 11.5 mph - N/A   Clear
11:56 AM 33.1 °F 24.9 °F 15.1 °F 48% 29.96 in 10.0 mi West 10.4 mph - N/A   Clear
12:56 PM 34.0 °F 28.0 °F 15.1 °F 46% 29.92 in 10.0 mi West 6.9 mph - N/A   Clear
1:56 PM 35.1 °F 31.0 °F 12.9 °F 40% 29.90 in 10.0 mi WNW 4.6 mph - N/A   Clear
2:56 PM 36.0 °F 29.6 °F 15.1 °F 43% 29.89 in 10.0 mi WNW 8.1 mph - N/A   Clear
3:56 PM 35.1 °F 28.6 °F 15.1 °F 44% 29.89 in 10.0 mi West 8.1 mph - N/A   Clear
4:56 PM 33.1 °F 28.7 °F 17.1 °F 52% 29.90 in 10.0 mi WSW 4.6 mph - N/A   Clear
5:56 PM 28.9 °F - 17.1 °F 61% 29.91 in 10.0 mi Calm Calm - N/A   Clear
6:56 PM 28.0 °F - 18.0 °F 66% 29.94 in 10.0 mi Calm Calm - N/A   Clear
7:56 PM 28.0 °F - 17.1 °F 63% 29.95 in 10.0 mi Calm Calm - N/A   Clear
8:56 PM 24.1 °F 17.0 °F 17.1 °F 75% 29.96 in 10.0 mi ESE 5.8 mph - N/A   Clear
9:56 PM 23.0 °F 15.8 °F 16.0 °F 74% 29.96 in 10.0 mi ESE 5.8 mph - N/A   Partly Cloudy
10:56 PM 25.0 °F 19.3 °F 18.0 °F 75% 29.96 in 10.0 mi SE 4.6 mph - N/A   Partly Cloudy
11:56 PM 24.1 °F 16.0 °F 18.0 °F 77% 29.94 in 8.0 mi ESE 6.9 mph - N/A   Partly Cloudy